| time (UTC) | temp C | wind direction | speed KPH | gust KPH | rain 1hr cm | rain 24hr cm | rain mn cm | humidity % | barometer mb |
| 20260507221313 | 13 | 85 | 0.0 | 0.0 | 0.00 | 1.73 | 1.73 | 98 | 1007.9 |
| 20260507220809 | 13 | 85 | 0.0 | 0.0 | 0.00 | 1.73 | 1.73 | 98 | 1007.9 |
| 20260507220308 | 13 | 85 | 0.0 | 0.0 | 0.00 | 1.73 | 1.73 | 98 | 1007.9 |
| 20260507215804 | 13 | 85 | 0.0 | 0.0 | 0.00 | 1.73 | 1.73 | 97 | 1008.1 |
| 20260507215301 | 13 | 85 | 0.0 | 0.0 | 0.00 | 1.73 | 1.73 | 98 | 1008.2 |
| 20260507214758 | 13 | 85 | 0.0 | 1.6 | 0.00 | 1.73 | 1.73 | 97 | 1008.0 |
| 20260507214255 | 13 | 24 | 0.0 | 0.0 | 0.00 | 1.73 | 1.73 | 98 | 1008.2 |
| 20260507213750 | 13 | 24 | 0.0 | 0.0 | 0.00 | 1.73 | 1.73 | 97 | 1008.1 |
| 20260507213248 | 13 | 24 | 0.0 | 1.6 | 0.00 | 1.73 | 1.73 | 97 | 1007.9 |
| 20260507212744 | 13 | 25 | 0.0 | 0.0 | 0.13 | 1.73 | 1.73 | 97 | 1007.8 |
| 20260507212240 | 13 | 25 | 0.0 | 0.0 | 0.13 | 1.73 | 1.73 | 97 | 1007.7 |
| 20260507211737 | 13 | 25 | 0.0 | 1.6 | 0.18 | 1.70 | 1.70 | 97 | 1007.8 |
| 20260507211234 | 13 | 24 | 0.0 | 0.0 | 0.18 | 1.70 | 1.70 | 97 | 1007.9 |
| 20260507210731 | 13 | 24 | 0.0 | 0.0 | 0.00 | 1.68 | 1.68 | 97 | 1007.9 |
| 20260507210227 | 13 | 24 | 0.0 | 0.0 | 0.00 | 1.68 | 1.68 | 98 | 1007.9 |
| 20260507205724 | 13 | 24 | 0.0 | 0.0 | 0.00 | 1.68 | 1.68 | 97 | 1007.9 |
| 20260507205221 | 13 | 24 | 0.0 | 0.0 | 0.00 | 1.68 | 1.68 | 97 | 1008.1 |
| 20260507204717 | 13 | 23 | 0.0 | 0.0 | 0.00 | 1.68 | 1.68 | 97 | 1007.9 |
| 20260507204215 | 13 | 23 | 0.0 | 1.6 | 0.00 | 1.68 | 1.68 | 97 | 1008.0 |
| 20260507203712 | 13 | 24 | 0.0 | 1.6 | 0.00 | 1.68 | 1.68 | 97 | 1007.9 |
| 20260507203210 | 13 | 24 | 0.0 | 0.0 | 0.00 | 1.68 | 1.68 | 96 | 1007.4 |
| 20260507202706 | 13 | 24 | 0.0 | 0.0 | 0.00 | 1.68 | 1.68 | 96 | 1007.2 |
| 20260507202202 | 14 | 24 | 0.0 | 1.6 | 0.00 | 1.68 | 1.68 | 96 | 1007.4 |
| 20260507201656 | 14 | 52 | 0.0 | 1.6 | 0.00 | 1.68 | 1.68 | 96 | 1007.4 |
| 20260507201154 | 14 | 52 | 0.0 | 0.0 | 0.00 | 1.68 | 1.68 | 96 | 1007.4 |
| 20260507200650 | 15 | 62 | 0.0 | 1.6 | 0.00 | 1.68 | 1.68 | 97 | 1007.5 |
| 20260507200146 | 15 | 62 | 0.0 | 1.6 | 0.00 | 1.68 | 1.68 | 97 | 1007.6 |
| 20260507195643 | 15 | 64 | 1.6 | 1.6 | 0.00 | 1.68 | 1.68 | 96 | 1007.5 |
| 20260507195140 | 15 | 72 | 0.0 | 1.6 | 0.00 | 1.68 | 1.68 | 96 | 1007.5 |
| 20260507194637 | 15 | 72 | 0.0 | 0.0 | 0.00 | 1.68 | 1.68 | 96 | 1007.3 |
| 20260507194132 | 15 | 72 | 0.0 | 1.6 | 0.00 | 1.68 | 1.68 | 96 | 1007.4 |
| 20260507193629 | 15 | 72 | 0.0 | 0.0 | 0.00 | 1.68 | 1.68 | 97 | 1007.4 |
| 20260507193127 | 15 | 72 | 0.0 | 0.0 | 0.00 | 1.68 | 1.68 | 97 | 1007.5 |
| 20260507192623 | 15 | 75 | 0.0 | 1.6 | 0.00 | 1.68 | 1.68 | 97 | 1007.5 |
| 20260507192120 | 14 | 75 | 0.0 | 0.0 | 0.00 | 1.68 | 1.68 | 97 | 1007.4 |
| 20260507191615 | 14 | 105 | 0.0 | 1.6 | 0.00 | 1.68 | 1.68 | 97 | 1007.6 |
| 20260507191112 | 14 | 68 | 0.0 | 0.0 | 0.00 | 1.68 | 1.68 | 97 | 1007.6 |
| 20260507190609 | 14 | 68 | 0.0 | 1.6 | 0.00 | 1.68 | 1.68 | 97 | 1007.5 |
| 20260507190109 | 14 | 137 | 0.0 | 1.6 | 0.00 | 1.68 | 1.68 | 97 | 1007.7 |
| 20260507185607 | 14 | 68 | 0.0 | 0.0 | 0.00 | 1.68 | 1.68 | 98 | 1007.5 |
| 20260507185103 | 14 | 68 | 0.0 | 0.0 | 0.00 | 1.68 | 1.68 | 98 | 1007.5 |
| 20260507184601 | 14 | 68 | 0.0 | 1.6 | 0.00 | 1.68 | 1.68 | 98 | 1007.6 |
| 20260507184058 | 14 | 70 | 0.0 | 1.6 | 0.00 | 1.68 | 1.68 | 98 | 1007.6 |
| 20260507183554 | 14 | 70 | 0.0 | 1.6 | 0.00 | 1.68 | 1.68 | 98 | 1007.3 |
| 20260507183051 | 14 | 71 | 0.0 | 1.6 | 0.00 | 1.68 | 1.68 | 98 | 1007.5 |
| 20260507182548 | 14 | 71 | 0.0 | 0.0 | 0.00 | 1.68 | 1.68 | 98 | 1007.5 |
| 20260507182044 | 14 | 71 | 0.0 | 0.0 | 0.00 | 1.68 | 1.68 | 98 | 1007.6 |
| 20260507181541 | 14 | 71 | 0.0 | 0.0 | 0.00 | 1.68 | 1.68 | 98 | 1007.9 |
| 20260507181037 | 15 | 71 | 0.0 | 1.6 | 0.00 | 1.68 | 1.68 | 98 | 1007.8 |
| 20260507180533 | 15 | 71 | 0.0 | 0.0 | 0.13 | 1.68 | 1.68 | 98 | 1007.7 |
| 20260507180030 | 15 | 71 | 0.0 | 0.0 | 0.13 | 1.68 | 1.68 | 98 | 1007.3 |
| 20260507175526 | 15 | 70 | 1.6 | 1.6 | 0.00 | 1.65 | 1.65 | 98 | 1007.5 |
| 20260507175025 | 15 | 138 | 0.0 | 1.6 | 0.00 | 1.65 | 1.65 | 98 | 1007.7 |
| 20260507174521 | 15 | 135 | 1.6 | 3.2 | 0.00 | 1.65 | 1.65 | 98 | 1007.7 |
| 20260507174019 | 15 | 74 | 0.0 | 0.0 | 0.18 | 1.65 | 1.65 | 98 | 1007.4 |
| 20260507173515 | 15 | 74 | 0.0 | 0.0 | 0.18 | 1.65 | 1.65 | 98 | 1007.2 |
| 20260507173013 | 15 | 74 | 0.0 | 1.6 | 0.13 | 1.63 | 1.63 | 97 | 1007.2 |
| 20260507172509 | 16 | 215 | 0.0 | 0.0 | 0.66 | 1.60 | 1.60 | 96 | 1007.9 |
| 20260507172006 | 16 | 88 | 0.0 | 0.0 | 1.19 | 1.57 | 1.57 | 95 | 1007.9 |
| 20260507171501 | 17 | 353 | 1.6 | 3.2 | 0.79 | 1.47 | 1.47 | 93 | 1007.5 |
| 20260507170959 | 18 | 353 | 1.6 | 3.2 | 0.00 | 1.35 | 1.35 | 93 | 1006.8 |
| 20260507170455 | 19 | 354 | 3.2 | 4.8 | 0.00 | 1.35 | 1.35 | 99 | 1006.4 |
| 20260507165952 | 19 | 172 | 0.0 | 0.0 | 0.00 | 1.35 | 1.35 | 99 | 1006.1 |
| 20260507165448 | 19 | 172 | 0.0 | 0.0 | 0.00 | 1.35 | 1.35 | 99 | 1006.2 |
| 20260507164944 | 19 | 173 | 0.0 | 0.0 | 0.00 | 1.35 | 1.35 | 99 | 1006.3 |
| 20260507164441 | 19 | 140 | 0.0 | 0.0 | 0.00 | 1.35 | 1.35 | 99 | 1006.3 |
| 20260507163937 | 19 | 140 | 0.0 | 0.0 | 0.00 | 1.35 | 1.35 | 99 | 1006.2 |
| 20260507163435 | 18 | 140 | 0.0 | 0.0 | 0.13 | 1.35 | 1.35 | 99 | 1006.2 |
| 20260507162932 | 19 | 140 | 0.0 | 0.0 | 0.13 | 1.35 | 1.35 | 99 | 1006.7 |
| 20260507162427 | 19 | 140 | 0.0 | 0.0 | 0.00 | 1.32 | 1.32 | 99 | 1006.7 |
| 20260507161925 | 18 | 141 | 1.6 | 1.6 | 0.18 | 1.32 | 1.32 | 99 | 1006.7 |
| 20260507161420 | 18 | 140 | 0.0 | 0.0 | 0.18 | 1.32 | 1.32 | 99 | 1006.6 |
| 20260507160918 | 18 | 140 | 0.0 | 0.0 | 0.13 | 1.30 | 1.30 | 99 | 1007.0 |
| 20260507160414 | 18 | 140 | 0.0 | 0.0 | 0.48 | 1.30 | 1.30 | 99 | 1007.3 |
| 20260507155910 | 18 | 140 | 0.0 | 0.0 | 0.36 | 1.27 | 1.27 | 99 | 1007.8 |
| 20260507155406 | 18 | 141 | 0.0 | 0.0 | 0.00 | 1.22 | 1.22 | 99 | 1008.0 |
| 20260507154903 | 18 | 141 | 0.0 | 1.6 | 0.13 | 1.22 | 1.22 | 99 | 1008.0 |
| 20260507154400 | 18 | 142 | 0.0 | 0.0 | 0.18 | 1.19 | 1.19 | 99 | 1007.8 |
| 20260507153857 | 19 | 142 | 0.0 | 0.0 | 0.18 | 1.19 | 1.19 | 99 | 1007.7 |
| 20260507153618 | 18 | 141 | 0.0 | 0.0 | 0.00 | 1.17 | 1.17 | 99 | 1008.0 |
| 20260507153353 | 18 | 141 | 0.0 | 0.0 | 0.00 | 1.17 | 1.17 | 99 | 1008.0 |
| 20260507153215 | 19 | 141 | 0.0 | 0.0 | 0.00 | 1.17 | 1.17 | 99 | 1007.8 |
| 20260507152849 | 19 | 141 | 0.0 | 0.0 | 0.00 | 1.17 | 1.17 | 99 | 1007.8 |
| 20260507152554 | 19 | 141 | 0.0 | 0.0 | 0.13 | 1.17 | 1.17 | 99 | 1007.2 |
| 20260507152346 | 19 | 142 | 0.0 | 0.0 | 0.13 | 1.17 | 1.17 | 99 | 1007.7 |
| 20260507151842 | 19 | 141 | 0.0 | 0.0 | 0.13 | 1.17 | 1.17 | 99 | 1007.2 |
| 20260507151338 | 19 | 142 | 0.0 | 0.0 | 0.00 | 1.14 | 1.14 | 99 | 1007.4 |
| 20260507150836 | 19 | 141 | 0.0 | 0.0 | 0.00 | 1.14 | 1.14 | 99 | 1007.2 |
| 20260507150332 | 19 | 141 | 0.0 | 0.0 | 0.18 | 1.14 | 1.14 | 99 | 1007.2 |
| 20260507145828 | 18 | 141 | 0.0 | 0.0 | 0.30 | 1.14 | 1.14 | 99 | 1007.5 |
| 20260507145325 | 19 | 132 | 0.0 | 0.0 | 0.13 | 1.12 | 1.12 | 99 | 1007.6 |
| 20260507144822 | 18 | 133 | 0.0 | 0.0 | 0.00 | 1.09 | 1.09 | 99 | 1007.7 |
| 20260507144319 | 18 | 133 | 0.0 | 0.0 | 0.00 | 1.09 | 1.09 | 99 | 1007.6 |
| 20260507143815 | 18 | 133 | 0.0 | 0.0 | 0.00 | 1.09 | 1.09 | 99 | 1007.3 |
| 20260507143313 | 18 | 132 | 0.0 | 0.0 | 0.18 | 1.09 | 1.09 | 99 | 1007.1 |
| 20260507142809 | 18 | 132 | 0.0 | 0.0 | 0.18 | 1.09 | 1.09 | 99 | 1006.9 |
| 20260507142307 | 18 | 132 | 0.0 | 0.0 | 0.13 | 1.07 | 1.07 | 99 | 1007.0 |
| 20260507141802 | 18 | 132 | 0.0 | 0.0 | 0.13 | 1.07 | 1.07 | 99 | 1007.2 |
| 20260507141259 | 18 | 132 | 0.0 | 0.0 | 0.18 | 1.04 | 1.04 | 99 | 1007.2 |
| 20260507140755 | 18 | 132 | 0.0 | 0.0 | 0.18 | 1.04 | 1.04 | 99 | 1007.4 |
| 20260507140253 | 18 | 132 | 0.0 | 0.0 | 0.13 | 1.02 | 1.02 | 99 | 1007.3 |
| 20260507135750 | 18 | 132 | 0.0 | 0.0 | 0.00 | 0.99 | 0.99 | 99 | 1007.4 |
| 20260507135247 | 18 | 132 | 0.0 | 0.0 | 0.18 | 0.99 | 0.99 | 99 | 1007.3 |
| 20260507134743 | 18 | 132 | 0.0 | 0.0 | 0.18 | 0.99 | 0.99 | 99 | 1007.5 |
| 20260507134240 | 18 | 181 | 0.0 | 0.0 | 0.13 | 0.97 | 0.97 | 99 | 1007.5 |
| 20260507133736 | 18 | 181 | 0.0 | 0.0 | 0.30 | 0.97 | 0.97 | 99 | 1007.7 |
| 20260507133233 | 18 | 183 | 0.0 | 0.0 | 0.36 | 0.94 | 0.94 | 99 | 1008.0 |
| 20260507132730 | 18 | 183 | 0.0 | 0.0 | 0.30 | 0.91 | 0.91 | 99 | 1008.1 |
| 20260507132227 | 18 | 183 | 0.0 | 0.0 | 0.30 | 0.89 | 0.89 | 99 | 1008.4 |
| 20260507131724 | 18 | 183 | 0.0 | 0.0 | 0.18 | 0.86 | 0.86 | 99 | 1008.3 |
| 20260507131221 | 18 | 183 | 0.0 | 0.0 | 0.00 | 0.84 | 0.84 | 99 | 1008.4 |
| 20260507130717 | 18 | 183 | 0.0 | 0.0 | 0.00 | 0.84 | 0.84 | 99 | 1008.1 |
| 20260507130216 | 18 | 184 | 0.0 | 0.0 | 0.13 | 0.84 | 0.84 | 99 | 1008.2 |
| 20260507125714 | 18 | 168 | 0.0 | 0.0 | 0.13 | 0.84 | 0.84 | 99 | 1008.1 |
| 20260507125211 | 18 | 190 | 0.0 | 0.0 | 0.00 | 0.81 | 0.81 | 99 | 1008.0 |
| 20260507124707 | 17 | 190 | 0.0 | 0.0 | 0.30 | 0.81 | 0.81 | 99 | 1008.0 |
| 20260507124205 | 17 | 190 | 0.0 | 0.0 | 0.30 | 0.81 | 0.81 | 99 | 1008.0 |
| 20260507123703 | 17 | 191 | 0.0 | 0.0 | 0.30 | 0.81 | 0.81 | 99 | 1007.8 |
| 20260507123200 | 17 | 1 | 0.0 | 0.0 | 0.13 | 0.79 | 0.79 | 99 | 1008.1 |
| 20260507122655 | 17 | 1 | 0.0 | 0.0 | 0.00 | 0.76 | 0.76 | 99 | 1008.1 |
| 20260507122151 | 17 | 1 | 0.0 | 0.0 | 0.00 | 0.76 | 0.76 | 99 | 1008.1 |
| 20260507121647 | 17 | 1 | 0.0 | 0.0 | 0.00 | 0.76 | 0.76 | 99 | 1008.1 |
| 20260507121143 | 17 | 1 | 0.0 | 0.0 | 0.00 | 0.76 | 0.76 | 99 | 1008.0 |
| 20260507120640 | 17 | 1 | 0.0 | 0.0 | 0.00 | 0.76 | 0.76 | 99 | 1007.9 |
| 20260507120136 | 17 | 1 | 0.0 | 0.0 | 0.18 | 0.76 | 0.76 | 99 | 1007.6 |
| 20260507115632 | 17 | 1 | 0.0 | 0.0 | 0.18 | 0.76 | 0.76 | 99 | 1007.8 |
| 20260507115128 | 17 | 1 | 0.0 | 0.0 | 0.00 | 0.74 | 0.74 | 99 | 1007.7 |
| 20260507114624 | 17 | 1 | 0.0 | 0.0 | 0.00 | 0.74 | 0.74 | 99 | 1007.8 |
| 20260507114122 | 17 | 1 | 0.0 | 0.0 | 0.00 | 0.74 | 0.74 | 99 | 1007.9 |
| 20260507113619 | 17 | 1 | 0.0 | 0.0 | 0.00 | 0.74 | 0.74 | 99 | 1008.0 |
| 20260507113116 | 17 | 1 | 0.0 | 0.0 | 0.00 | 0.74 | 0.74 | 99 | 1007.7 |
| 20260507112614 | 17 | 1 | 0.0 | 0.0 | 0.00 | 0.74 | 0.74 | 99 | 1008.1 |
| 20260507112110 | 17 | 1 | 0.0 | 0.0 | 0.00 | 0.74 | 0.74 | 99 | 1008.3 |
| 20260507111608 | 17 | 1 | 0.0 | 0.0 | 0.00 | 0.74 | 0.74 | 99 | 1008.1 |
| 20260507111104 | 17 | 1 | 0.0 | 0.0 | 0.13 | 0.74 | 0.74 | 99 | 1008.2 |
| 20260507110600 | 17 | 1 | 0.0 | 0.0 | 0.13 | 0.74 | 0.74 | 99 | 1008.1 |
| 20260507110057 | 17 | 1 | 0.0 | 0.0 | 0.00 | 0.71 | 0.71 | 99 | 1008.2 |
| 20260507105554 | 17 | 1 | 0.0 | 0.0 | 0.00 | 0.71 | 0.71 | 99 | 1008.2 |
| 20260507105050 | 17 | 1 | 0.0 | 0.0 | 0.00 | 0.71 | 0.71 | 99 | 1008.3 |
| 20260507104547 | 17 | 1 | 0.0 | 0.0 | 0.00 | 0.71 | 0.71 | 99 | 1008.3 |
| 20260507104043 | 17 | 1 | 0.0 | 0.0 | 0.00 | 0.71 | 0.71 | 99 | 1007.9 |
| 20260507103540 | 17 | 1 | 0.0 | 0.0 | 0.30 | 0.71 | 0.71 | 99 | 1007.9 |
| 20260507103037 | 17 | 1 | 0.0 | 0.0 | 0.66 | 0.71 | 0.71 | 99 | 1007.8 |
| 20260507102533 | 17 | 1 | 0.0 | 0.0 | 0.66 | 0.66 | 0.66 | 99 | 1007.9 |
| 20260507102031 | 17 | 1 | 0.0 | 0.0 | 0.61 | 0.61 | 0.61 | 99 | 1007.6 |
| 20260507101525 | 17 | 1 | 0.0 | 0.0 | 0.30 | 0.56 | 0.56 | 99 | 1007.8 |
| 20260507101021 | 17 | 1 | 0.0 | 0.0 | 0.30 | 0.51 | 0.51 | 99 | 1008.0 |
| 20260507100519 | 17 | 1 | 0.0 | 0.0 | 0.30 | 0.51 | 0.51 | 99 | 1007.7 |
| 20260507100017 | 17 | 1 | 0.0 | 0.0 | 0.00 | 0.46 | 0.46 | 99 | 1007.7 |
| 20260507095515 | 17 | 1 | 0.0 | 0.0 | 0.00 | 0.46 | 0.46 | 99 | 1007.6 |
| 20260507095011 | 17 | 1 | 0.0 | 0.0 | 0.00 | 0.46 | 0.46 | 99 | 1007.9 |
| 20260507094507 | 17 | 1 | 0.0 | 0.0 | 0.00 | 0.46 | 0.46 | 99 | 1007.9 |
| 20260507094005 | 17 | 1 | 0.0 | 0.0 | 0.00 | 0.46 | 0.46 | 99 | 1007.9 |
| 20260507093502 | 17 | 1 | 0.0 | 0.0 | 0.00 | 0.46 | 0.46 | 99 | 1007.9 |
| 20260507093000 | 17 | 1 | 0.0 | 0.0 | 0.00 | 0.46 | 0.46 | 99 | 1007.8 |
| 20260507092456 | 17 | 1 | 0.0 | 0.0 | 0.00 | 0.46 | 0.46 | 99 | 1007.8 |
| 20260507091953 | 17 | 1 | 0.0 | 0.0 | 0.00 | 0.46 | 0.46 | 99 | 1007.9 |
| 20260507091450 | 17 | 1 | 0.0 | 0.0 | 0.00 | 0.46 | 0.46 | 99 | 1007.8 |
| 20260507090945 | 17 | 1 | 0.0 | 0.0 | 0.00 | 0.46 | 0.46 | 99 | 1008.0 |
| 20260507090442 | 17 | 1 | 0.0 | 0.0 | 0.00 | 0.46 | 0.46 | 99 | 1008.0 |
| 20260507085938 | 17 | 1 | 0.0 | 0.0 | 0.00 | 0.46 | 0.46 | 99 | 1007.9 |
| 20260507085436 | 17 | 1 | 0.0 | 0.0 | 0.00 | 0.46 | 0.46 | 99 | 1007.8 |
| 20260507084932 | 17 | 1 | 0.0 | 1.6 | 0.13 | 0.46 | 0.46 | 99 | 1008.2 |
| 20260507084429 | 17 | 1 | 0.0 | 0.0 | 0.13 | 0.46 | 0.46 | 99 | 1008.1 |
| 20260507083926 | 17 | 1 | 0.0 | 0.0 | 0.00 | 0.43 | 0.43 | 99 | 1008.0 |
| 20260507083423 | 17 | 1 | 0.0 | 0.0 | 0.00 | 0.43 | 0.43 | 99 | 1008.2 |
| 20260507082919 | 17 | 1 | 0.0 | 0.0 | 0.00 | 0.43 | 0.43 | 99 | 1008.1 |
| 20260507082415 | 17 | 1 | 0.0 | 0.0 | 0.18 | 0.43 | 0.43 | 99 | 1008.0 |
| 20260507081912 | 17 | 1 | 0.0 | 0.0 | 0.18 | 0.43 | 0.43 | 99 | 1008.4 |
| 20260507081408 | 17 | 1 | 0.0 | 0.0 | 0.00 | 0.41 | 0.41 | 99 | 1008.7 |
| 20260507080905 | 17 | 1 | 0.0 | 0.0 | 0.00 | 0.41 | 0.41 | 99 | 1008.7 |
| 20260507080401 | 17 | 1 | 0.0 | 0.0 | 0.00 | 0.41 | 0.41 | 99 | 1008.7 |
| 20260507075857 | 17 | 1 | 0.0 | 0.0 | 0.00 | 0.41 | 0.41 | 99 | 1008.7 |
| 20260507075353 | 17 | 1 | 0.0 | 0.0 | 0.00 | 0.41 | 0.41 | 99 | 1008.6 |
| 20260507074849 | 17 | 1 | 0.0 | 0.0 | 0.00 | 0.41 | 0.41 | 99 | 1008.4 |
| 20260507074347 | 17 | 1 | 0.0 | 0.0 | 0.00 | 0.41 | 0.41 | 99 | 1008.0 |
| 20260507073844 | 17 | 1 | 0.0 | 0.0 | 0.00 | 0.41 | 0.41 | 99 | 1008.0 |
| 20260507073340 | 17 | 1 | 0.0 | 0.0 | 0.00 | 0.41 | 0.41 | 99 | 1008.2 |
| 20260507072838 | 17 | 1 | 0.0 | 0.0 | 0.00 | 0.41 | 0.41 | 99 | 1008.4 |
| 20260507072335 | 17 | 1 | 0.0 | 0.0 | 0.00 | 0.41 | 0.41 | 99 | 1008.7 |
| 20260507071833 | 17 | 1 | 0.0 | 0.0 | 0.00 | 0.41 | 0.41 | 99 | 1008.9 |
| 20260507071330 | 17 | 1 | 0.0 | 1.6 | 0.00 | 0.41 | 0.41 | 99 | 1009.0 |
| 20260507070826 | 17 | 1 | 0.0 | 1.6 | 0.00 | 0.41 | 0.41 | 99 | 1009.2 |
| 20260507070323 | 17 | 1 | 0.0 | 0.0 | 0.00 | 0.41 | 0.41 | 99 | 1009.1 |
| 20260507065820 | 17 | 1 | 0.0 | 0.0 | 0.00 | 0.41 | 0.41 | 99 | 1009.1 |
| 20260507065316 | 17 | 1 | 0.0 | 0.0 | 0.00 | 0.41 | 0.41 | 99 | 1009.0 |
| 20260507064814 | 17 | 1 | 0.0 | 0.0 | 0.00 | 0.41 | 0.41 | 99 | 1009.2 |
| 20260507064312 | 17 | 1 | 0.0 | 0.0 | 0.00 | 0.41 | 0.41 | 99 | 1009.0 |
| 20260507063810 | 17 | 1 | 0.0 | 0.0 | 0.00 | 0.41 | 0.41 | 99 | 1008.8 |
| 20260507063307 | 17 | 0 | 0.0 | 0.0 | 0.00 | 0.41 | 0.41 | 99 | 1009.5 |
| 20260507062803 | 17 | 0 | 0.0 | 0.0 | 0.00 | 0.41 | 0.41 | 99 | 1009.9 |
| 20260507062300 | 17 | 0 | 0.0 | 0.0 | 0.00 | 0.41 | 0.41 | 99 | 1009.9 |
| 20260507061758 | 17 | 0 | 0.0 | 0.0 | 0.00 | 0.41 | 0.41 | 99 | 1010.1 |
| 20260507061256 | 17 | 0 | 0.0 | 0.0 | 0.00 | 0.41 | 0.41 | 99 | 1009.9 |
| 20260507060754 | 17 | 0 | 0.0 | 0.0 | 0.00 | 0.41 | 0.41 | 99 | 1010.1 |
| 20260507060250 | 17 | 0 | 0.0 | 0.0 | 0.00 | 0.41 | 0.41 | 99 | 1009.8 |
| 20260507055747 | 17 | 1 | 0.0 | 0.0 | 0.00 | 0.41 | 0.41 | 99 | 1009.1 |
| 20260507055242 | 17 | 1 | 0.0 | 0.0 | 0.00 | 0.41 | 0.41 | 99 | 1009.7 |
| 20260507054739 | 18 | 1 | 0.0 | 0.0 | 0.00 | 0.41 | 0.41 | 99 | 1009.9 |
| 20260507054235 | 18 | 1 | 0.0 | 0.0 | 0.00 | 0.41 | 0.41 | 99 | 1009.9 |
| 20260507053733 | 18 | 1 | 0.0 | 0.0 | 0.00 | 0.41 | 0.41 | 99 | 1009.9 |
| 20260507053230 | 18 | 1 | 0.0 | 0.0 | 0.00 | 0.41 | 0.41 | 99 | 1010.0 |
| 20260507052729 | 18 | 1 | 0.0 | 0.0 | 0.00 | 0.41 | 0.41 | 99 | 1010.1 |
| 20260507052225 | 18 | 359 | 0.0 | 0.0 | 0.00 | 0.41 | 0.41 | 99 | 1009.8 |
| 20260507051723 | 18 | 359 | 0.0 | 0.0 | 0.00 | 0.41 | 0.41 | 98 | 1009.7 |
| 20260507051220 | 18 | 354 | 0.0 | 0.0 | 0.00 | 0.41 | 0.41 | 98 | 1009.7 |
| 20260507050717 | 18 | 353 | 0.0 | 0.0 | 0.13 | 0.41 | 0.41 | 98 | 1010.0 |
| 20260507050214 | 18 | 353 | 0.0 | 1.6 | 0.13 | 0.41 | 0.41 | 98 | 1010.2 |
| 20260507045710 | 18 | 353 | 1.6 | 3.2 | 0.18 | 0.38 | 0.38 | 98 | 1010.0 |
| 20260507045206 | 18 | 282 | 1.6 | 3.2 | 0.13 | 0.36 | 0.36 | 98 | 1008.2 |
| 20260507044704 | 18 | 51 | 1.6 | 3.2 | 0.61 | 0.36 | 0.36 | 98 | 1009.0 |
| 20260507044200 | 18 | 100 | 0.0 | 1.6 | 0.61 | 0.30 | 0.30 | 98 | 1009.5 |
| 20260507043657 | 18 | 145 | 3.2 | 4.8 | 0.48 | 0.25 | 0.25 | 98 | 1009.1 |
| 20260507043154 | 18 | 263 | 0.0 | 0.0 | 0.18 | 0.20 | 0.20 | 98 | 1010.5 |
| 20260507042650 | 18 | 256 | 3.2 | 3.2 | 0.13 | 0.18 | 0.18 | 98 | 1010.1 |
| 20260507042145 | 18 | 135 | 3.2 | 3.2 | 0.18 | 0.15 | 0.15 | 98 | 1010.1 |
| 20260507041642 | 18 | 83 | 0.0 | 1.6 | 0.48 | 0.15 | 0.15 | 98 | 1010.9 |
| 20260507041138 | 18 | 81 | 0.0 | 1.6 | 0.71 | 0.13 | 0.13 | 98 | 1011.3 |
| 20260507040636 | 18 | 40 | 1.6 | 1.6 | 0.48 | 0.05 | 0.05 | 98 | 1011.6 |
| 20260507040132 | 18 | 56 | 1.6 | 3.2 | 0.48 | 0.00 | 0.00 | 98 | 1011.5 |
| 20260507035628 | 18 | 339 | 0.0 | 0.0 | 0.13 | 0.20 | 0.20 | 98 | 1011.8 |
| 20260507035124 | 18 | 157 | 0.0 | 0.0 | 0.00 | 0.18 | 0.18 | 98 | 1011.6 |
| 20260507034621 | 18 | 157 | 0.0 | 0.0 | 0.00 | 0.18 | 0.18 | 98 | 1011.6 |
| 20260507034119 | 18 | 157 | 0.0 | 0.0 | 0.00 | 0.18 | 0.18 | 98 | 1011.3 |
| 20260507033617 | 18 | 157 | 0.0 | 0.0 | 0.18 | 0.18 | 0.18 | 98 | 1011.1 |
| 20260507033114 | 18 | 156 | 0.0 | 0.0 | 0.30 | 0.18 | 0.18 | 98 | 1010.9 |
| 20260507032611 | 18 | 154 | 0.0 | 0.0 | 0.30 | 0.15 | 0.15 | 97 | 1010.8 |
| 20260507032107 | 18 | 154 | 0.0 | 1.6 | 0.18 | 0.13 | 0.13 | 97 | 1010.7 |
| 20260507031604 | 18 | 153 | 0.0 | 0.0 | 0.00 | 0.10 | 0.10 | 97 | 1010.2 |
| 20260507031101 | 18 | 154 | 0.0 | 0.0 | 0.00 | 0.10 | 0.10 | 97 | 1010.3 |
| 20260507030557 | 18 | 154 | 0.0 | 0.0 | 0.00 | 0.10 | 0.10 | 97 | 1010.5 |
| 20260507030055 | 18 | 154 | 0.0 | 0.0 | 0.00 | 0.10 | 0.10 | 97 | 1010.4 |
| 20260507025552 | 18 | 154 | 0.0 | 0.0 | 0.00 | 0.10 | 0.10 | 97 | 1010.7 |
| 20260507025049 | 18 | 154 | 0.0 | 0.0 | 0.13 | 0.10 | 0.10 | 97 | 1010.6 |
| 20260507024547 | 18 | 154 | 0.0 | 0.0 | 0.13 | 0.10 | 0.10 | 97 | 1010.4 |
| 20260507024043 | 18 | 154 | 0.0 | 0.0 | 0.18 | 0.08 | 0.08 | 96 | 1010.5 |
| 20260507023539 | 18 | 154 | 0.0 | 0.0 | 0.18 | 0.08 | 0.08 | 96 | 1010.2 |
| 20260507023037 | 18 | 154 | 0.0 | 0.0 | 0.00 | 0.05 | 0.05 | 96 | 1010.0 |
| 20260507022534 | 18 | 154 | 0.0 | 0.0 | 0.00 | 0.05 | 0.05 | 96 | 1009.8 |
| 20260507022029 | 18 | 154 | 0.0 | 0.0 | 0.00 | 0.05 | 0.05 | 96 | 1009.9 |
| 20260507021525 | 18 | 154 | 0.0 | 0.0 | 0.00 | 0.05 | 0.05 | 96 | 1009.8 |
| 20260507021022 | 18 | 154 | 0.0 | 0.0 | 0.00 | 0.05 | 0.05 | 96 | 1009.8 |
| 20260507020519 | 18 | 154 | 0.0 | 0.0 | 0.00 | 0.05 | 0.05 | 95 | 1009.7 |
| 20260507020016 | 18 | 154 | 0.0 | 0.0 | 0.00 | 0.05 | 0.05 | 95 | 1009.7 |
| 20260507015514 | 18 | 154 | 0.0 | 0.0 | 0.00 | 0.05 | 0.05 | 95 | 1009.7 |
| 20260507015012 | 18 | 154 | 0.0 | 0.0 | 0.00 | 0.05 | 0.05 | 94 | 1009.7 |
| 20260507014508 | 18 | 154 | 0.0 | 0.0 | 0.00 | 0.05 | 0.05 | 94 | 1009.5 |
| 20260507014004 | 18 | 154 | 0.0 | 0.0 | 0.00 | 0.05 | 0.05 | 94 | 1009.9 |
| 20260507013500 | 18 | 154 | 0.0 | 0.0 | 0.00 | 0.05 | 0.05 | 94 | 1009.7 |
| 20260507012958 | 18 | 154 | 0.0 | 0.0 | 0.00 | 0.05 | 0.05 | 94 | 1009.9 |
| 20260507012454 | 18 | 154 | 0.0 | 0.0 | 0.00 | 0.05 | 0.05 | 94 | 1010.0 |
| 20260507011951 | 18 | 154 | 0.0 | 0.0 | 0.00 | 0.05 | 0.05 | 94 | 1009.8 |
| 20260507011448 | 18 | 154 | 0.0 | 0.0 | 0.00 | 0.05 | 0.05 | 93 | 1009.7 |
| 20260507010943 | 18 | 154 | 0.0 | 0.0 | 0.00 | 0.05 | 0.05 | 93 | 1009.7 |
| 20260507010438 | 19 | 154 | 0.0 | 0.0 | 0.00 | 0.05 | 0.05 | 94 | 1009.7 |
| 20260507005936 | 19 | 154 | 0.0 | 0.0 | 0.00 | 0.05 | 0.05 | 93 | 1009.7 |
| 20260507005433 | 19 | 154 | 0.0 | 0.0 | 0.00 | 0.05 | 0.05 | 93 | 1009.7 |
| 20260507004930 | 19 | 154 | 0.0 | 0.0 | 0.00 | 0.05 | 0.05 | 93 | 1009.9 |
| 20260507004426 | 19 | 154 | 0.0 | 0.0 | 0.00 | 0.05 | 0.05 | 93 | 1009.9 |
| 20260507003924 | 19 | 154 | 0.0 | 0.0 | 0.00 | 0.05 | 0.05 | 93 | 1009.8 |
| 20260507003418 | 19 | 154 | 0.0 | 0.0 | 0.00 | 0.05 | 0.05 | 93 | 1009.9 |
| 20260507002914 | 20 | 154 | 0.0 | 0.0 | 0.00 | 0.05 | 0.05 | 92 | 1009.5 |
| 20260507002410 | 20 | 154 | 0.0 | 0.0 | 0.00 | 0.05 | 0.05 | 91 | 1009.5 |
| 20260507001908 | 20 | 154 | 0.0 | 0.0 | 0.00 | 0.05 | 0.05 | 91 | 1009.8 |
| 20260507001404 | 20 | 154 | 0.0 | 0.0 | 0.00 | 0.05 | 0.05 | 91 | 1009.8 |
| 20260507000902 | 20 | 154 | 0.0 | 0.0 | 0.00 | 0.05 | 0.05 | 91 | 1009.7 |
| 20260507000357 | 20 | 154 | 0.0 | 0.0 | 0.00 | 0.05 | 0.05 | 91 | 1009.5 |
| 20260506235853 | 20 | 154 | 0.0 | 0.0 | 0.00 | 0.05 | 0.05 | 90 | 1009.4 |
| 20260506235350 | 20 | 154 | 0.0 | 0.0 | 0.00 | 0.05 | 0.05 | 89 | 1009.5 |
| 20260506234846 | 20 | 154 | 0.0 | 0.0 | 0.00 | 0.05 | 0.05 | 89 | 1009.4 |
| 20260506234344 | 20 | 154 | 0.0 | 0.0 | 0.00 | 0.05 | 0.05 | 90 | 1009.5 |
| 20260506233841 | 20 | 154 | 0.0 | 0.0 | 0.00 | 0.05 | 0.05 | 90 | 1009.7 |
| 20260506233337 | 20 | 154 | 1.6 | 1.6 | 0.00 | 0.05 | 0.05 | 89 | 1010.0 |
| 20260506232834 | 21 | 154 | 0.0 | 0.0 | 0.00 | 0.05 | 0.05 | 85 | 1009.9 |
| 20260506232330 | 21 | 154 | 0.0 | 0.0 | 0.00 | 0.05 | 0.05 | 85 | 1010.0 |
| 20260506231827 | 21 | 154 | 0.0 | 0.0 | 0.00 | 0.05 | 0.05 | 84 | 1010.0 |
| 20260506231324 | 21 | 154 | 0.0 | 0.0 | 0.00 | 0.05 | 0.05 | 84 | 1009.8 |
| 20260506230822 | 21 | 154 | 0.0 | 0.0 | 0.00 | 0.05 | 0.05 | 84 | 1009.9 |
| 20260506230318 | 21 | 154 | 0.0 | 0.0 | 0.00 | 0.05 | 0.05 | 84 | 1009.9 |
| 20260506225814 | 21 | 154 | 0.0 | 1.6 | 0.00 | 0.05 | 0.05 | 83 | 1009.7 |
| 20260506225312 | 21 | 154 | 0.0 | 0.0 | 0.00 | 0.05 | 0.05 | 81 | 1009.9 |
| 20260506224809 | 22 | 154 | 0.0 | 0.0 | 0.00 | 0.05 | 0.05 | 80 | 1010.0 |
| 20260506224306 | 22 | 154 | 0.0 | 0.0 | 0.00 | 0.05 | 0.05 | 79 | 1010.0 |
| 20260506223802 | 22 | 154 | 0.0 | 1.6 | 0.00 | 0.05 | 0.05 | 77 | 1009.9 |
| 20260506223257 | 22 | 154 | 1.6 | 3.2 | 0.00 | 0.05 | 0.05 | 79 | 1009.9 |
| 20260506222754 | 22 | 154 | 0.0 | 0.0 | 0.00 | 0.05 | 0.05 | 78 | 1010.2 |
| 20260506222250 | 22 | 154 | 0.0 | 1.6 | 0.00 | 0.05 | 0.05 | 80 | 1009.8 |